When you browse on this site, cookies collect data to enhance your experience and personalize the content and advertising you see.
Visit our Privacy Policy to learn more. By continuing to use the site, you agree to this use of cookies and data.
  • In Spain
  • List of Countries
  • For 7 days
  • Water Temperature
  • Weather Map
  • Weather Widgets
  • user-avatar
    Login

    Hourly Weather Inchhon

    Today, 4 June, Thursday

    Time Temperature Precipitation Wind Pressure Humidity
    00:00 +21°C° 0 mm 3 mps 750 mmHg 88%
    01:00 +21°C° 0 mm 3 mps 750 mmHg 88%
    02:00 +21°C° 0 mm 4 mps 750 mmHg 88%
    03:00 +20°C° 0 mm 4 mps 750 mmHg 87%
    04:00 +20°C° 0 mm 4 mps 750 mmHg 87%
    05:00 +20°C° 0 mm 4 mps 751 mmHg 86%
    06:00 +20°C° 0 mm 4 mps 751 mmHg 85%
    07:00 +21°C° 0 mm 4 mps 751 mmHg 83%
    08:00 +21°C° 0 mm 3 mps 751 mmHg 80%
    09:00 +22°C° 0 mm 3 mps 751 mmHg 77%
    10:00 +24°C° 0 mm 3 mps 751 mmHg 74%
    11:00 +23°C° 0 mm 4 mps 751 mmHg 72%
    12:00 +23°C° 0 mm 4 mps 751 mmHg 72%
    13:00 +25°C° 0 mm 4 mps 750 mmHg 73%
    14:00 +25°C° 0 mm 4 mps 750 mmHg 73%
    15:00 +23°C° 0 mm 4 mps 750 mmHg 76%
    16:00 +22°C° 0 mm 4 mps 750 mmHg 78%
    17:00 +22°C° 0 mm 4 mps 751 mmHg 81%
    18:00 +21°C° 0 mm 3 mps 751 mmHg 83%
    19:00 +21°C° 0 mm 3 mps 751 mmHg 85%
    20:00 +21°C° 0 mm 2 mps 752 mmHg 87%
    21:00 +21°C° 0 mm 2 mps 752 mmHg 87%
    22:00 +20°C° 0 mm 2 mps 753 mmHg 87%
    23:00 +21°C° 0 mm 1 mps 753 mmHg 87%

    Tomorrow, 5 June, Friday

    Time Temperature Precipitation Wind Pressure Humidity
    00:00 +21°C° 0 mm 1 mps 753 mmHg 87%
    01:00 +21°C° 0 mm 1 mps 753 mmHg 87%
    02:00 +21°C° 0 mm 1 mps 753 mmHg 87%
    03:00 +21°C° 0 mm 1 mps 753 mmHg 86%
    04:00 +21°C° 0 mm 1 mps 753 mmHg 86%
    05:00 +19°C° 0 mm 0 mps 754 mmHg 85%
    06:00 +22°C° 0 mm 1 mps 754 mmHg 78%
    07:00 +23°C° 0 mm 1 mps 754 mmHg 71%
    08:00 +24°C° 0 mm 1 mps 754 mmHg 64%
    09:00 +25°C° 0 mm 1 mps 754 mmHg 59%
    10:00 +26°C° 0 mm 2 mps 754 mmHg 53%
    11:00 +27°C° 0 mm 3 mps 754 mmHg 47%
    12:00 +28°C° 0 mm 3 mps 754 mmHg 46%
    13:00 +28°C° 0 mm 3 mps 753 mmHg 44%
    14:00 +28°C° 0 mm 3 mps 753 mmHg 42%
    15:00 +28°C° 0 mm 3 mps 753 mmHg 43%
    16:00 +27°C° 0 mm 3 mps 753 mmHg 44%
    17:00 +27°C° 0 mm 3 mps 753 mmHg 44%
    18:00 +26°C° 0 mm 3 mps 754 mmHg 47%
    19:00 +25°C° 0 mm 2 mps 754 mmHg 49%
    20:00 +24°C° 0 mm 2 mps 754 mmHg 51%
    21:00 +24°C° 0 mm 2 mps 754 mmHg 52%
    22:00 +24°C° 0 mm 1 mps 755 mmHg 53%
    23:00 +23°C° 0 mm 1 mps 755 mmHg 54%

    Day after tomorrow, 6 June, Saturday

    Time Temperature Precipitation Wind Pressure Humidity
    00:00 +23°C° 0 mm 1 mps 755 mmHg 56%
    01:00 +21°C° 0 mm 0 mps 755 mmHg 57%
    02:00 +20°C° 0 mm 0 mps 755 mmHg 59%
    03:00 +20°C° 0 mm 0 mps 755 mmHg 60%
    04:00 +20°C° 0 mm 0 mps 755 mmHg 61%
    05:00 +20°C° 0 mm 0 mps 755 mmHg 61%
    06:00 +23°C° 0 mm 1 mps 755 mmHg 57%
    07:00 +24°C° 0 mm 1 mps 755 mmHg 53%
    08:00 +26°C° 0 mm 2 mps 755 mmHg 49%
    09:00 +27°C° 0 mm 2 mps 755 mmHg 46%
    10:00 +27°C° 0 mm 2 mps 755 mmHg 44%
    11:00 +28°C° 0 mm 2 mps 755 mmHg 41%
    12:00 +28°C° 0 mm 3 mps 755 mmHg 41%
    13:00 +29°C° 0 mm 3 mps 754 mmHg 40%
    14:00 +29°C° 0 mm 4 mps 754 mmHg 40%
    15:00 +28°C° 0 mm 4 mps 754 mmHg 42%
    16:00 +28°C° 0 mm 4 mps 754 mmHg 44%
    17:00 +27°C° 0 mm 4 mps 754 mmHg 45%
    18:00 +26°C° 0 mm 3 mps 754 mmHg 48%
    19:00 +25°C° 0 mm 3 mps 755 mmHg 50%
    20:00 +24°C° 0 mm 2 mps 755 mmHg 53%
    21:00 +24°C° 0 mm 2 mps 755 mmHg 53%
    22:00 +24°C° 0 mm 2 mps 756 mmHg 54%
    23:00 +23°C° 0 mm 2 mps 756 mmHg 54%

    7 June, Sunday

    Time Temperature Precipitation Wind Pressure Humidity
    00:00 +23°C° 0 mm 1 mps 756 mmHg 54%
    01:00 +22°C° 0 mm 1 mps 756 mmHg 55%
    02:00 +22°C° 0 mm 1 mps 756 mmHg 55%
    03:00 +22°C° 0 mm 1 mps 756 mmHg 55%
    04:00 +20°C° 0 mm 0 mps 756 mmHg 55%
    05:00 +20°C° 0 mm 0 mps 757 mmHg 56%
    06:00 +23°C° 0 mm 1 mps 757 mmHg 54%
    07:00 +24°C° 0 mm 1 mps 757 mmHg 53%
    08:00 +25°C° 0 mm 2 mps 757 mmHg 51%
    09:00 +26°C° 0 mm 2 mps 757 mmHg 48%
    10:00 +28°C° 0 mm 2 mps 757 mmHg 44%
    11:00 +29°C° 0 mm 2 mps 756 mmHg 40%
    12:00 +29°C° 0 mm 3 mps 756 mmHg 41%
    13:00 +28°C° 0 mm 4 mps 756 mmHg 43%
    14:00 +28°C° 0 mm 4 mps 755 mmHg 45%
    15:00 +27°C° 0 mm 4 mps 755 mmHg 51%
    16:00 +26°C° 0 mm 4 mps 755 mmHg 57%
    17:00 +25°C° 0 mm 3 mps 755 mmHg 63%
    18:00 +25°C° 0 mm 3 mps 756 mmHg 66%
    19:00 +24°C° 0 mm 2 mps 756 mmHg 69%
    20:00 +23°C° 0 mm 1 mps 757 mmHg 73%
    21:00 +23°C° 0 mm 1 mps 757 mmHg 73%
    22:00 +23°C° 0 mm 2 mps 757 mmHg 73%
    23:00 +21°C° 0 mm 2 mps 758 mmHg 74%

    8 June, Monday

    Time Temperature Precipitation Wind Pressure Humidity
    00:00 +21°C° 0 mm 2 mps 758 mmHg 76%
    01:00 +21°C° 0 mm 2 mps 758 mmHg 77%
    02:00 +20°C° 0 mm 2 mps 758 mmHg 79%
    03:00 +21°C° 0 mm 1 mps 759 mmHg 79%
    04:00 +21°C° 0 mm 1 mps 759 mmHg 80%
    05:00 +21°C° 0 mm 1 mps 759 mmHg 80%
    06:00 +23°C° 0 mm 1 mps 759 mmHg 73%
    07:00 +24°C° 0 mm 1 mps 760 mmHg 67%
    08:00 +25°C° 0 mm 1 mps 760 mmHg 60%
    09:00 +27°C° 0 mm 1 mps 760 mmHg 55%
    10:00 +28°C° 0 mm 1 mps 759 mmHg 50%
    11:00 +30°C° 0 mm 2 mps 759 mmHg 44%
    12:00 +30°C° 0 mm 2 mps 759 mmHg 43%
    13:00 +30°C° 0 mm 3 mps 759 mmHg 42%
    14:00 +30°C° 0 mm 4 mps 758 mmHg 41%
    15:00 +29°C° 0 mm 4 mps 758 mmHg 45%
    16:00 +28°C° 0 mm 4 mps 758 mmHg 49%
    17:00 +27°C° 0 mm 4 mps 758 mmHg 53%
    18:00 +26°C° 0 mm 4 mps 759 mmHg 54%
    19:00 +26°C° 0 mm 3 mps 759 mmHg 56%
    20:00 +25°C° 0 mm 3 mps 760 mmHg 58%
    21:00 +24°C° 0 mm 2 mps 760 mmHg 58%
    22:00 +24°C° 0 mm 2 mps 760 mmHg 58%
    23:00 +24°C° 0 mm 1 mps 760 mmHg 59%

    9 June, Tuesday

    Time Temperature Precipitation Wind Pressure Humidity
    00:00 +23°C° 0 mm 1 mps 760 mmHg 59%
    01:00 +23°C° 0 mm 1 mps 760 mmHg 59%
    02:00 +21°C° 0 mm 0 mps 760 mmHg 59%
    03:00 +21°C° 0 mm 0 mps 760 mmHg 59%
    04:00 +21°C° 0 mm 0 mps 760 mmHg 59%
    05:00 +21°C° 0 mm 0 mps 760 mmHg 59%
    06:00 +22°C° 0 mm 0 mps 760 mmHg 55%
    07:00 +25°C° 0 mm 1 mps 760 mmHg 51%
    08:00 +26°C° 0 mm 1 mps 761 mmHg 47%
    09:00 +28°C° 0 mm 2 mps 760 mmHg 43%
    10:00 +29°C° 0 mm 2 mps 760 mmHg 40%
    11:00 +30°C° 0 mm 3 mps 760 mmHg 37%
    12:00 +30°C° 0 mm 3 mps 759 mmHg 36%
    13:00 +30°C° 0 mm 3 mps 759 mmHg 35%
    14:00 +31°C° 0 mm 3 mps 759 mmHg 35%
    15:00 +30°C° 0 mm 3 mps 758 mmHg 36%
    16:00 +29°C° 0 mm 4 mps 758 mmHg 37%
    17:00 +28°C° 0 mm 4 mps 758 mmHg 38%
    18:00 +27°C° 0 mm 3 mps 759 mmHg 41%
    19:00 +27°C° 0 mm 3 mps 759 mmHg 44%
    20:00 +26°C° 0 mm 2 mps 759 mmHg 47%
    21:00 +25°C° 0 mm 1 mps 760 mmHg 49%
    22:00 +25°C° 0 mm 1 mps 760 mmHg 52%
    23:00 +24°C° 0 mm 1 mps 760 mmHg 54%
    Show more